Time,TemperatureF,DewpointF,PressureIn,WindDirection,WindDirectionDegrees,WindSpeedMPH,WindSpeedGustMPH,Humidity,HourlyPrecipIn,Conditions,Clouds,dailyrainin,SoftwareType,DateUTC
2013-03-25 00:00:00,57.6,55.0,29.98,West,268,0.0,2.0,91,0.00,,---,0.00,VWS V14.00,2013-03-25 07:00:00,
2013-03-25 00:30:00,57.3,54.7,29.97,West,268,0.0,3.0,91,0.00,,---,0.00,VWS V14.00,2013-03-25 07:30:00,
2013-03-25 00:31:00,57.3,54.7,29.97,West,268,0.0,3.0,91,0.00,,---,0.00,VWS V14.00,2013-03-25 07:31:00,
2013-03-25 01:00:00,55.7,52.8,29.98,West,268,0.0,0.0,90,0.00,,---,0.00,VWS V14.00,2013-03-25 08:00:00,
2013-03-25 01:01:00,55.7,52.8,29.98,West,268,0.0,0.0,90,0.00,,---,0.00,VWS V14.00,2013-03-25 08:01:00,
2013-03-25 01:30:00,55.1,52.5,29.97,West,268,0.0,0.0,91,0.00,,---,0.00,VWS V14.00,2013-03-25 08:30:00,
2013-03-25 01:31:00,55.1,52.5,29.97,West,268,0.0,0.0,91,0.00,,---,0.00,VWS V14.00,2013-03-25 08:31:00,
2013-03-25 02:00:00,54.4,51.8,29.97,West,268,0.0,1.0,91,0.00,,---,0.00,VWS V14.00,2013-03-25 09:00:00,
2013-03-25 02:01:00,54.4,51.8,29.97,West,268,0.0,1.0,91,0.00,,---,0.00,VWS V14.00,2013-03-25 09:01:00,
2013-03-25 02:30:00,54.5,52.2,29.97,West,268,0.0,1.0,92,0.00,,---,0.00,VWS V14.00,2013-03-25 09:30:00,
2013-03-25 02:31:00,54.5,52.2,29.97,West,268,0.0,1.0,92,0.00,,---,0.00,VWS V14.00,2013-03-25 09:31:00,
2013-03-25 03:00:00,55.5,53.2,29.97,West,268,0.0,1.0,92,0.00,,---,0.00,VWS V14.00,2013-03-25 10:00:00,
2013-03-25 03:01:00,55.5,53.2,29.97,West,268,0.0,1.0,92,0.00,,---,0.00,VWS V14.00,2013-03-25 10:01:00,
2013-03-25 03:30:00,55.8,53.5,29.97,West,268,1.0,2.0,92,0.00,,---,0.00,VWS V14.00,2013-03-25 10:30:00,
2013-03-25 03:31:00,55.8,53.5,29.97,West,268,1.0,2.0,92,0.00,,---,0.00,VWS V14.00,2013-03-25 10:31:00,
2013-03-25 04:00:00,55.6,53.6,29.97,West,268,0.0,2.0,93,0.00,,---,0.00,VWS V14.00,2013-03-25 11:00:00,
2013-03-25 04:01:00,55.6,53.6,29.97,West,268,0.0,2.0,93,0.00,,---,0.00,VWS V14.00,2013-03-25 11:01:00,
2013-03-25 04:30:00,55.6,53.6,29.97,West,268,1.0,2.0,93,0.00,,---,0.00,VWS V14.00,2013-03-25 11:30:00,
2013-03-25 04:31:00,55.6,53.6,29.97,West,268,1.0,2.0,93,0.00,,---,0.00,VWS V14.00,2013-03-25 11:31:00,
2013-03-25 05:00:00,55.5,53.5,29.98,South,169,0.0,4.0,93,0.00,,---,0.00,VWS V14.00,2013-03-25 12:00:00,
2013-03-25 05:01:00,55.5,53.5,29.98,South,169,0.0,4.0,93,0.00,,---,0.00,VWS V14.00,2013-03-25 12:01:00,
2013-03-25 05:30:00,55.5,53.5,29.98,South,169,0.0,2.0,93,0.00,,---,0.00,VWS V14.00,2013-03-25 12:30:00,
2013-03-25 05:31:00,55.5,53.5,29.98,South,169,0.0,2.0,93,0.00,,---,0.00,VWS V14.00,2013-03-25 12:31:00,
2013-03-25 06:00:00,55.5,53.5,29.99,South,169,0.0,1.0,93,0.00,,---,0.00,VWS V14.00,2013-03-25 13:00:00,
2013-03-25 06:01:00,55.5,53.5,29.99,South,169,0.0,1.0,93,0.00,,---,0.00,VWS V14.00,2013-03-25 13:01:00,
2013-03-25 06:30:00,55.5,53.5,29.99,SSE,148,0.0,2.0,93,0.00,,---,0.00,VWS V14.00,2013-03-25 13:30:00,
2013-03-25 06:31:00,55.5,53.5,29.99,SSE,148,0.0,2.0,93,0.00,,---,0.00,VWS V14.00,2013-03-25 13:31:00,
2013-03-25 07:00:00,54.9,52.6,30.00,East,96,0.0,3.0,92,0.00,,---,0.00,VWS V14.00,2013-03-25 14:00:00,
2013-03-25 07:01:00,54.9,52.6,30.00,East,96,0.0,3.0,92,0.00,,---,0.00,VWS V14.00,2013-03-25 14:01:00,
2013-03-25 07:30:00,54.8,52.5,30.01,East,96,0.0,1.0,92,0.00,,---,0.00,VWS V14.00,2013-03-25 14:30:00,
2013-03-25 07:31:00,54.8,52.5,30.01,East,96,0.0,1.0,92,0.00,,---,0.00,VWS V14.00,2013-03-25 14:31:00,
2013-03-25 08:00:00,55.3,52.7,30.01,SE,142,1.0,3.0,91,0.00,,---,0.00,VWS V14.00,2013-03-25 15:00:00,
2013-03-25 08:30:00,55.5,53.2,30.01,South,169,0.0,4.0,92,0.00,,---,0.00,VWS V14.00,2013-03-25 15:30:00,
2013-03-25 08:31:00,55.5,53.2,30.01,South,169,0.0,4.0,92,0.00,,---,0.00,VWS V14.00,2013-03-25 15:31:00,
2013-03-25 09:00:00,55.9,53.6,30.02,SSE,161,2.0,5.0,92,0.00,,---,0.00,VWS V14.00,2013-03-25 16:00:00,
2013-03-25 09:01:00,55.9,53.6,30.02,SSE,161,2.0,5.0,92,0.00,,---,0.00,VWS V14.00,2013-03-25 16:01:00,
2013-03-25 09:30:00,55.4,53.1,30.02,SE,135,4.0,6.0,92,0.00,,---,0.00,VWS V14.00,2013-03-25 16:30:00,
2013-03-25 09:31:00,55.4,53.1,30.02,SE,135,4.0,6.0,92,0.00,,---,0.00,VWS V14.00,2013-03-25 16:31:00,
2013-03-25 10:00:00,55.2,52.9,30.02,SSE,162,1.0,4.0,92,0.00,,---,0.00,VWS V14.00,2013-03-25 17:00:00,
2013-03-25 10:01:00,55.2,52.9,30.02,SSE,162,1.0,4.0,92,0.00,,---,0.00,VWS V14.00,2013-03-25 17:01:00,
2013-03-25 10:30:00,56.0,54.0,30.02,SSE,162,1.0,3.0,93,0.00,,---,0.00,VWS V14.00,2013-03-25 17:30:00,
2013-03-25 10:31:00,56.0,54.0,30.02,SSE,162,1.0,3.0,93,0.00,,---,0.00,VWS V14.00,2013-03-25 17:31:00,
2013-03-25 11:00:00,56.6,53.7,30.02,SSE,162,1.0,3.0,90,0.00,,---,0.00,VWS V14.00,2013-03-25 18:00:00,
2013-03-25 11:30:00,58.7,55.2,30.01,SSE,165,1.0,4.0,88,0.00,,---,0.00,VWS V14.00,2013-03-25 18:30:00,
2013-03-25 11:31:00,58.7,55.2,30.01,SSE,165,1.0,4.0,88,0.00,,---,0.00,VWS V14.00,2013-03-25 18:31:00,
2013-03-25 12:00:00,61.0,56.1,30.01,SW,223,0.0,2.0,84,0.00,,---,0.00,VWS V14.00,2013-03-25 19:00:00,
2013-03-25 12:01:00,61.0,56.1,30.01,SW,223,0.0,2.0,84,0.00,,---,0.00,VWS V14.00,2013-03-25 19:01:00,
2013-03-25 12:30:00,62.3,56.1,29.99,West,265,1.0,3.0,80,0.00,,---,0.00,VWS V14.00,2013-03-25 19:30:00,
2013-03-25 12:31:00,62.3,56.1,29.99,West,265,1.0,3.0,80,0.00,,---,0.00,VWS V14.00,2013-03-25 19:31:00,
2013-03-25 13:00:00,62.3,56.4,29.98,West,266,0.0,3.0,81,0.00,,---,0.00,VWS V14.00,2013-03-25 20:00:00,
2013-03-25 13:01:00,62.3,56.4,29.98,West,266,0.0,3.0,81,0.00,,---,0.00,VWS V14.00,2013-03-25 20:01:00,
2013-03-25 13:30:00,65.4,58.0,29.97,West,266,0.0,3.0,77,0.00,,---,0.00,VWS V14.00,2013-03-25 20:30:00,
2013-03-25 13:31:00,65.4,58.0,29.97,West,266,0.0,3.0,77,0.00,,---,0.00,VWS V14.00,2013-03-25 20:31:00,
2013-03-25 14:00:00,65.0,57.3,29.97,West,267,1.0,3.0,76,0.00,,---,0.00,VWS V14.00,2013-03-25 21:00:00,
2013-03-25 14:01:00,65.0,57.3,29.97,West,267,1.0,3.0,76,0.00,,---,0.00,VWS V14.00,2013-03-25 21:01:00,
2013-03-25 14:30:00,65.2,57.8,29.96,West,266,0.0,2.0,77,0.00,,---,0.00,VWS V14.00,2013-03-25 21:30:00,
2013-03-25 14:31:00,65.2,57.8,29.96,West,266,0.0,2.0,77,0.00,,---,0.00,VWS V14.00,2013-03-25 21:31:00,
2013-03-25 15:00:00,67.3,59.1,29.95,West,266,0.0,3.0,75,0.00,,---,0.00,VWS V14.00,2013-03-25 22:00:00,
2013-03-25 15:01:00,67.3,59.1,29.95,West,266,0.0,3.0,75,0.00,,---,0.00,VWS V14.00,2013-03-25 22:01:00,
2013-03-25 15:30:00,66.0,57.5,29.94,West,266,0.0,2.0,74,0.00,,---,0.00,VWS V14.00,2013-03-25 22:30:00,
2013-03-25 15:31:00,66.0,57.5,29.94,West,266,0.0,2.0,74,0.00,,---,0.00,VWS V14.00,2013-03-25 22:31:00,
2013-03-25 16:00:00,65.6,58.2,29.94,West,266,1.0,2.0,77,0.00,,---,0.00,VWS V14.00,2013-03-25 23:00:00,
2013-03-25 16:01:00,65.6,58.2,29.94,West,266,1.0,2.0,77,0.00,,---,0.00,VWS V14.00,2013-03-25 23:01:00,
2013-03-25 16:30:00,66.5,58.7,29.94,West,266,0.0,2.0,76,0.00,,---,0.00,VWS V14.00,2013-03-25 23:30:00,
2013-03-25 16:31:00,66.5,58.7,29.94,West,266,0.0,2.0,76,0.00,,---,0.00,VWS V14.00,2013-03-25 23:31:00,
2013-03-25 17:00:00,65.1,57.7,29.94,West,266,0.0,2.0,77,0.00,,---,0.00,VWS V14.00,2013-03-26 00:00:00,
2013-03-25 17:01:00,65.1,57.7,29.94,West,266,0.0,2.0,77,0.00,,---,0.00,VWS V14.00,2013-03-26 00:01:00,
2013-03-25 17:30:00,64.1,57.5,29.93,West,266,0.0,1.0,79,0.00,,---,0.00,VWS V14.00,2013-03-26 00:30:00,
2013-03-25 17:31:00,64.1,57.5,29.93,West,266,0.0,1.0,79,0.00,,---,0.00,VWS V14.00,2013-03-26 00:31:00,
2013-03-25 18:00:00,63.1,57.2,29.93,West,266,0.0,0.0,81,0.00,,---,0.00,VWS V14.00,2013-03-26 01:00:00,
2013-03-25 18:01:00,63.1,57.2,29.93,West,266,0.0,0.0,81,0.00,,---,0.00,VWS V14.00,2013-03-26 01:01:00,
2013-03-25 18:30:00,61.3,56.8,29.93,West,266,0.0,1.0,85,0.00,,---,0.00,VWS V14.00,2013-03-26 01:30:00,
2013-03-25 18:31:00,61.3,56.8,29.93,West,266,0.0,1.0,85,0.00,,---,0.00,VWS V14.00,2013-03-26 01:31:00,
2013-03-25 19:00:00,60.1,56.2,29.94,West,266,0.0,1.0,87,0.00,,---,0.00,VWS V14.00,2013-03-26 02:00:00,
2013-03-25 19:01:00,60.1,56.2,29.94,West,266,0.0,1.0,87,0.00,,---,0.00,VWS V14.00,2013-03-26 02:01:00,
2013-03-25 19:30:00,59.6,56.0,29.94,West,266,1.0,1.0,88,0.00,,---,0.00,VWS V14.00,2013-03-26 02:30:00,
2013-03-25 19:31:00,59.6,56.0,29.94,West,266,1.0,1.0,88,0.00,,---,0.00,VWS V14.00,2013-03-26 02:31:00,
2013-03-25 20:00:00,59.5,56.3,29.95,West,266,0.0,2.0,89,0.00,,---,0.00,VWS V14.00,2013-03-26 03:00:00,
2013-03-25 20:01:00,59.5,56.3,29.95,West,266,0.0,2.0,89,0.00,,---,0.00,VWS V14.00,2013-03-26 03:01:00,
2013-03-25 20:30:00,59.5,56.6,29.97,West,266,0.0,1.0,90,0.00,,---,0.00,VWS V14.00,2013-03-26 03:30:00,
2013-03-25 20:31:00,59.5,56.6,29.97,West,266,0.0,1.0,90,0.00,,---,0.00,VWS V14.00,2013-03-26 03:31:00,
2013-03-25 21:00:00,59.5,56.3,29.97,West,266,0.0,1.0,89,0.00,,---,0.00,VWS V14.00,2013-03-26 04:00:00,
2013-03-25 21:01:00,59.5,56.3,29.97,West,266,0.0,1.0,89,0.00,,---,0.00,VWS V14.00,2013-03-26 04:01:00,
2013-03-25 21:30:00,59.0,55.8,29.98,West,266,0.0,1.0,89,0.00,,---,0.00,VWS V14.00,2013-03-26 04:30:00,
2013-03-25 21:31:00,59.0,55.8,29.98,West,266,0.0,1.0,89,0.00,,---,0.00,VWS V14.00,2013-03-26 04:31:00,
2013-03-25 22:00:00,58.7,55.5,29.99,West,266,0.0,1.0,89,0.00,,---,0.00,VWS V14.00,2013-03-26 05:00:00,
2013-03-25 22:01:00,58.7,55.5,29.99,West,266,0.0,1.0,89,0.00,,---,0.00,VWS V14.00,2013-03-26 05:01:00,
2013-03-25 22:30:00,58.8,55.6,29.99,West,266,0.0,0.0,89,0.00,,---,0.00,VWS V14.00,2013-03-26 05:30:00,
2013-03-25 22:31:00,58.8,55.6,29.99,West,266,0.0,0.0,89,0.00,,---,0.00,VWS V14.00,2013-03-26 05:31:00,
2013-03-25 23:00:00,58.6,55.1,29.99,West,266,0.0,1.0,88,0.00,,---,0.00,VWS V14.00,2013-03-26 06:00:00,
2013-03-25 23:01:00,58.6,55.1,29.99,West,266,0.0,1.0,88,0.00,,---,0.00,VWS V14.00,2013-03-26 06:01:00,
2013-03-25 23:30:00,58.0,54.8,29.99,West,266,0.0,1.0,89,0.00,,---,0.00,VWS V14.00,2013-03-26 06:30:00,
2013-03-25 23:31:00,58.0,54.8,29.99,West,266,0.0,1.0,89,0.00,,---,0.00,VWS V14.00,2013-03-26 06:31:00,